sat.trackr.live / text

‹ back to catalog

STARLINK-34938

NORAD 65236 · 2025-179B

PAYLOAD ACTIVE UNKNOWN

§ Identity

Operator
Country
US
Launch date
2025-08-18
Launch site
AFWTR
Launch vehicle
Mass (kg)
RCS (m²)

Purposes: comms

External: N2YO · Heavens-Above · Gunter

§ Orbital elements

Epoch: 2026-05-25T02:13:23.531808Z

Period
95.64 min
Inclination
97.4458°
Eccentricity
0.0001599
Mean motion
15.05645017 rev/d
Perigee alt
548.4 km
Apogee alt
550.6 km
Semi-major
6,927.7 km
B*
-1.6224e-4
RAAN
187.8877°
Arg perigee
119.0903°
Mean anomaly
241.0484°
Rev number
4,336

§ Raw data

STARLINK-349381 65236U 25179B   26145.09263347 -.00002398  00000+0 -16224-3 0  99992 65236  97.4458 187.8877 0001599 119.0903 241.0484 15.05645017 43367

JSON: /api/v1/satellites/65236 · /tle

For live sub-satellite position, see the globe view (requires WebGL).

§ Visibility from observer

Set your observer location to see the next 7 days of passes ≥ 10°. The values pass through the URL so the page stays shareable.

No JS? Fill the form by hand. The geolocation button needs JavaScript.